Location: NJAA Observatory
(40.6819°N, 74.8979°W)
Time: 17:21:03
(UTC-05:00)

Cosmos 2263 Rocket - Visible Passes

Search period start: 25 January 2015 00:00
Search period end: 04 February 2015 00:00
Orbit: 822 x 850 km, 71.0° (Epoch: 24 January)

Date Brightness Start Highest point End Pass type
(mag) Time Alt. Az. Time Alt. Az. Time Alt. Az.
28 Jan 4.6 19:46:13 10° N 19:46:19 10° N 19:46:19 10° N visible
29 Jan 4.3 19:29:41 10° N 19:30:25 13° N 19:30:25 13° N visible
30 Jan 4.1 19:13:10 10° N 19:14:34 15° NNE 19:14:34 15° NNE visible
30 Jan 4.9 20:56:04 10° NNW 20:56:17 11° NNW 20:56:17 11° NNW visible
31 Jan 3.9 18:56:40 10° N 18:58:48 16° NNE 18:58:48 16° NNE visible
31 Jan 4.5 20:39:24 10° NNW 20:40:32 16° NNW 20:40:32 16° NNW visible
01 Feb 3.8 18:40:10 10° N 18:43:09 17° NE 18:43:09 17° NE visible
01 Feb 4.0 20:22:45 10° NNW 20:24:53 24° NNW 20:24:53 24° NNW visible
02 Feb 3.7 18:23:41 10° N 18:27:00 16° NE 18:27:37 16° NE visible
02 Feb 3.3 20:06:07 10° NNW 20:09:22 36° NNW 20:09:22 36° NNW visible
03 Feb 3.8 18:07:14 10° NNE 18:10:16 15° NE 18:12:15 13° ENE visible
03 Feb 2.5 19:49:27 10° NNW 19:54:01 59° NNW 19:54:01 59° NNW visible
